Regional Weather Roundup
Issued by NWS

Home | Current Version | Previous Version | Text Only | Print | Product List | Glossary Off
Versions: 1 2 3 4 5 6 7 8 9 10 11 12 13 14 15 16 17 18 19 20 21 22 23 24 25 26 27 28 29 30 31 32 33 34 35 36 37 38 39 40 41 42 43 44 45 46 47 48 49 50

000
ASUS43 KMPX 270510
RWRMN
WEATHER ROUNDUP FOR MINNESOTA
NATIONAL WEATHER SERVICE TWIN CITIES/CHANHASSEN MN
1200 AM CDT FRI MAY 27 2016


NOTE: "FAIR" INDICATES FEW OR NO CLOUDS BELOW 12,000 FEET WITH NO
SIGNIFICANT WEATHER AND/OR OBSTRUCTIONS TO VISIBILITY. N/A MEANS
CURRENT SKY AND/OR WEATHER CONDITIONS ARE NOT AVAILABLE.

MNZ060>063-068>070-270600-
   Twin Cities Metro

CITY           SKY/WX    TMP DP  RH WIND       PRES   REMARKS
TWIN CITIES    CLOUDY    72  53  51 S6        29.83R
ST PAUL        CLOUDY    66  57  72 S3        29.83R
CRYSTAL        CLOUDY    65  54  67 CALM      29.81R
BLAINE         CLOUDY    64  55  72 CALM      29.82R
EDEN PRAIRIE   CLOUDY    68  54  60 S7        29.83R
SOUTH ST PAUL  MOCLDY    68  54  62 CALM      29.84R
LAKE ELMO      FAIR      63  57  82 CALM      29.85R
$$
MNZ001>005-007-008-013>017-022>024-027-028-270600-
   Northwest Minnesota

CITY           SKY/WX    TMP DP  RH WIND       PRES   REMARKS
BEMIDJI        CLEAR     58  51  77 S3        29.80S
HALLOCK        CLEAR     55  54  94 SW3       29.77S
ROSEAU         CLEAR     57  54  88 SW6       29.77R
WARROAD        CLEAR     57  54  88 SW6       29.77R
THIEF RVR FALL PTCLDY    57  52  82 W3        29.81R
CROOKSTON      CLOUDY    59  55  88 CALM      29.80S
FOSSTON        CLEAR     54  52  94 CALM      29.81R
DETROIT LAKES  LGT RAIN  63  55  77 S8        29.82R
MOORHEAD       MOCLDY    64  55  72 SE5       29.78S
PARK RAPIDS    CLOUDY    58  51  78 CALM      29.81S
MAHNOMEN       FAIR      60  54  79 SE6       29.78F
$$
MNZ006-009>011-018-025>026-270600-
   North Central Minnesota

CITY           SKY/WX    TMP DP  RH WIND       PRES   REMARKS
BAUDETTE       CLEAR     56  52  86 SW5       29.76F
FLAG ISLAND    PTCLDY    59  54  82 SW8       29.74S
INTL FALLS     CLEAR     54  51  90 SW3       29.77F
WASKISH        CLEAR     57  52  82 CALM      29.79R
BIG FORK       CLOUDY    54  50  87 CALM      29.81S
LONGVILLE      CLOUDY    52  50  93 CALM      29.82R
GRAND RAPIDS   CLOUDY    54  50  86 SE5       29.83S
CRANE LAKE     CLOUDY    52  52 100 CALM      29.80S FOG
ORR            CLOUDY    55  52  88 CALM      29.77S
COOK           PTCLDY    55  52  88 CALM      29.80S
WALKER         FAIR      54  51  89 CALM      29.81R
$$
MNZ012-019>021-037-270600-
   Northeast Minnesota

CITY           SKY/WX    TMP DP  RH WIND       PRES   REMARKS
DULUTH         CLOUDY    51  48  89 CALM      29.83R
ELY            PTCLDY    61  55  82 CALM      29.81R
HIBBING        CLOUDY    49  48  97 CALM      29.81R
EVELETH        CLOUDY    54  52  94 CALM      29.83S
DULUTH HARBOR  FOG       48  46  93 CALM      29.85S VSB 3/4
TWO HARBORS    CLOUDY    48  45  87 CALM      29.82S HAZE
SILVER BAY     CLOUDY    50  48  93 CALM      29.82R VSB 1/4
GRAND MARAIS     N/A     46  45  96 CALM      29.83S
G MARAIS ARPRT CLOUDY    46  45  93 W3        29.84R
$$
MNZ029>031-032-039>041-046>048-054>057-064-270600-
   West Central Minnesota

CITY           SKY/WX    TMP DP  RH WIND       PRES   REMARKS
FERGUS FALLS   CLOUDY    66  52  59 SE6       29.77R
WHEATON        CLOUDY    68  55  64 W12G23    29.85R
MORRIS         CLOUDY    64  46  52 CALM      29.81R
ALEXANDRIA     CLOUDY    64  50  60 E5        29.84R
ELBOW LAKE     FAIR      64  54  69 SE3       29.82R
WADENA         CLOUDY    57  52  82 E3        29.82R
GLENWOOD       CLOUDY    63  52  67 SE6       29.84R
APPLETON       CLOUDY    64  52  63 CALM      29.81R
ORTONVILLE     CLOUDY    63  52  67 W5        29.83R
MADISON        CLOUDY    63  50  63 CALM      29.82R
WILLMAR        FAIR      64  55  72 CALM      29.83R
$$
MNZ033>034-036-042>043-049>051-058-059-270600-
   Central Minnesota

CITY           SKY/WX    TMP DP  RH WIND       PRES   REMARKS
ST CLOUD       CLOUDY    61  56  83 CALM      29.82R
SAUK CENTRE    MOCLDY    61  52  72 CALM      29.83R
PAYNESVILLE    CLOUDY    63  56  77 CALM      29.83R
AITKIN         CLOUDY    54  48  82 CALM      29.82R
PINE RIVER     CLOUDY    55  54  94 CALM      29.86R
BRAINERD       CLOUDY    55  52  89 CALM      29.83R
STAPLES        CLOUDY    59  50  72 CALM      29.83R
LONG PRAIRIE   FAIR      59  54  82 CALM      29.83R
LITTLE FALLS   CLOUDY    55  52  88 CALM      29.84R
LITCHFIELD     MOCLDY    66  57  72 CALM      29.82S
BUFFALO        CLOUDY    65  55  67 CALM      29.84R
MAPLE LAKE     CLOUDY    64  58  80 CALM      29.84R
HUTCHINSON     CLEAR     64  60  86 E3        29.84R
$$
MNZ037-044-045-052-053-270600-
   East Central Minnesota

CITY           SKY/WX    TMP DP  RH WIND       PRES   REMARKS
PRINCETON      CLOUDY    61  57  88 CALM      29.84R
MORA           MOCLDY    55  52  88 CALM      29.85R
CAMBRIDGE      PTCLDY    63  52  67 CALM      29.81S
RUSH CITY      CLOUDY    58  54  88 CALM      29.84R
MOOSE LAKE     CLOUDY    54  52  94 CALM      29.82R
HINCKLEY       FAIR      54  54 100 CALM      29.84R
CLOQUET        PTCLDY    48  46  93 CALM      29.84R
MCGREGOR       CLOUDY    55  52  88 CALM      29.84R
$$
MNZ071>073-080-081-089-090-097-098-270600-
   Southwest Minnesota

CITY           SKY/WX    TMP DP  RH WIND       PRES   REMARKS
MONTEVIDEO     CLOUDY    66  52  59 CALM      29.83R
GRANITE FALLS  CLOUDY    65  52  62 CALM      29.83R
CANBY          CLOUDY    64  56  73 W3        29.83R
MARSHALL       CLOUDY    66  53  63 SW5       29.82R
REDWOOD FALLS  CLOUDY    67  55  65 CALM      29.82R
OLIVIA         CLOUDY    59  50  72 CALM      29.82R
PIPESTONE      CLOUDY    63  55  77 CALM      29.84S
WINDOM         CLOUDY    66  55  68 CALM      29.85R
WORTHINGTON    CLOUDY    63  58  83 S5        29.86R
JACKSON        CLOUDY    64  54  68 S7        29.85R
TRACY          CLOUDY    68  55  63 S5        29.84R
SLAYTON        CLOUDY    64  55  72 S6        29.85R
$$
MNZ065>067-074>077-082>085-091>093-270600-
   South Central Minnesota

CITY           SKY/WX    TMP DP  RH WIND       PRES   REMARKS
MANKATO        CLOUDY    70  54  56 SE12      29.83S
NEW ULM        CLOUDY    68  54  60 S9        29.82R
ST JAMES       CLOUDY    63  54  72 S8        29.84R
FAIRMONT       CLOUDY    64  54  68 S10       29.84R
GLENCOE        MOCLDY    66  59  77 SE6       29.82R
FARIBAULT      CLOUDY    66  57  72 N2        29.83F
OWATONNA       CLOUDY    68  55  64 S12       29.87R
WASECA         CLOUDY    64  55  72 S12G17    29.87R
ALBERT LEA     CLOUDY    66  55  68 S3        29.85F
$$
MNZ078>079-086>088-094>096-270600-
   Southeast Minnesota

CITY           SKY/WX    TMP DP  RH WIND       PRES   REMARKS
ROCHESTER      CLOUDY    66  61  84 SW13      29.87S
RED WING       MOCLDY    63  59  88 NE5       29.83R
STANTON        CLOUDY    65  55  71 CALM      29.82F
DODGE CENTER   CLOUDY    66  57  72 S14       29.88R
WINONA         CLOUDY    63  59  88 CALM      29.85F
AUSTIN         CLOUDY    64  55  72 W5        29.85F
PRESTON        CLOUDY    65  58  75 SW7       29.87F
$$
ABBREVIATIONS USED IN REMARKS
   TC - TEMPERATURES IN CELSIUS
  WCI - WIND CHILL INDEX
   HX - HEAT INDEX
  VSB - VISIBILITY
$$




USA.gov is the U.S. government's official web portal to all federal, state and local government web resources and services.